Wind_Speed
29 24 21 20 17 17 15 17 22 22 22 16 7 9 8 5 2 1 2 3 4 5 8 11 13 14 14 14 14 14 14 14 13 13 13 13 14 17 16 15 16 19 18
31 28 23 16 15 15 16 20 20 19 16 12 9 11 9 5 3 3 4 5 8 11 14 16 18 19 19 20 19 17 16 16 17 17 16 15 15 17 18 18 15 16 20
35 32 15 15 13 16 15 16 17 16 12 9 12 13 10 7 6 6 7 9 12 15 17 19 21 23 24 24 24 22 20 20 19 19 21 21 19 19 21 20 19 17 16
36 29 13 14 16 15 12 13 15 12 9 8 11 12 10 9 9 9 11 12 15 18 20 21 23 25 26 26 24 22 21 21 22 21 22 22 22 22 23 22 21 19 19
32 26 14 17 12 13 13 13 12 10 9 8 10 11 11 11 11 12 14 16 19 21 22 24 25 25 25 22 21 20 20 20 20 20 20 22 21 23 25 24 22 22 20
16 20 19 14 13 12 10 11 11 10 8 8 10 11 11 11 14 16 17 19 20 23 25 25 24 24 22 21 21 22 21 21 21 22 23 25 25 26 27 27 24 24 23
24 11 14 13 10 10 10 10 10 9 8 8 9 10 12 14 17 19 20 21 23 25 25 26 28 29 27 26 26 26 27 27 27 27 27 29 30 30 28 27 26 25 25
20 11 9 12 8 9 10 11 12 9 9 8 10 14 16 18 20 22 23 25 25 25 25 30 30 31 28 27 30 31 30 30 31 30 28 28 28 28 29 29 28 28 27
9 6 13 10 10 10 13 14 13 11 11 10 15 17 19 21 24 25 26 28 28 26 28 32 30 29 24 30 29 29 30 31 31 29 27 26 26 27 28 29 30 29 30
4 6 10 11 14 15 15 13 12 12 13 15 18 22 24 24 24 27 29 30 31 30 30 30 30 25 30 33 33 32 32 30 29 29 27 24 23 25 27 29 29 29 30
7 10 13 14 12 12 12 12 13 15 17 20 22 23 24 27 27 30 31 33 33 33 32 29 30 32 34 35 34 32 30 29 29 29 30 27 25 25 25 26 27 26 27
12 11 12 12 10 11 10 13 15 19 19 21 25 28 30 32 30 32 33 36 34 34 32 31 30 32 34 36 34 31 28 26 27 29 28 28 27 26 26 26 26 27 27
11 11 9 8 9 11 13 15 16 17 21 25 29 31 35 37 36 34 35 37 34 34 33 33 31 31 35 36 32 30 28 28 27 28 28 29 28 27 27 27 27 28 29
9 9 8 9 12 13 13 14 17 20 24 29 33 35 36 33 36 36 34 36 35 34 34 34 32 33 36 37 35 32 32 32 32 32 33 31 32 32 31 31 31 31 31
7 7 10 12 13 13 15 18 22 25 27 30 34 36 36 35 40 36 26 30 34 34 34 36 38 39 39 40 39 37 35 34 33 34 37 35 37 37 38 38 37 37 37
6 9 11 11 12 16 20 23 23 24 26 34 35 30 38 37 38 23 29 27 45 40 38 42 40 41 41 40 41 38 38 38 38 40 42 44 43 43 43 44 45 45 44
9 10 13 12 15 19 22 23 21 25 35 31 30 31 33 36 44 45 41 52 50 43 42 43 44 40 40 40 44 43 43 45 47 47 48 51 53 53 53 52 53 53 53
9 12 13 15 18 22 20 20 29 19 33 34 34 36 36 43 44 45 44 45 46 45 50 45 40 40 40 42 44 47 48 51 53 56 57 58 60 62 64 62 64 64 63
12 13 12 17 18 21 22 30 41 40 37 41 41 45 42 39 39 37 39 42 46 46 44 43 42 43 45 47 50 52 54 57 60 63 65 67 69 70 72 73 72 74 73
16 18 18 19 21 24 30 38 42 44 45 46 47 44 40 40 39 38 38 41 43 44 45 46 49 52 56 56 57 59 60 63 65 66 68 69 72 74 75 76 78 79 78
20 19 17 20 25 30 36 36 37 39 46 48 44 38 35 35 36 39 41 45 47 50 51 54 58 61 61 61 61 64 66 69 71 73 74 76 79 81 83 86 87 88 89
20 20 23 28 33 34 37 40 41 45 48 47 45 44 44 45 47 49 50 52 53 55 57 58 58 59 64 68 69 70 73 75 78 81 84 86 89 91 93 95 97 100 101
22 22 26 32 30 32 35 38 41 42 43 46 48 49 48 48 49 51 52 53 54 56 58 61 64 67 70 73 76 78 80 84 88 91 95 97 99 100 100 102 103 103 105
20 21 23 23 26 31 34 35 38 42 45 47 49 50 52 53 52 52 54 56 59 60 62 66 69 72 74 79 84 88 91 94 98 100 101 103 104 105 103 100 98 94 93
16 17 19 22 27 30 33 37 40 44 46 48 50 52 52 53 55 57 57 58 60 64 67 70 73 78 82 86 89 93 97 100 102 105 107 104 96 89 84 79 75 71 70
16 19 22 25 29 34 38 42 45 48 51 52 53 55 56 56 57 58 59 61 64 67 71 76 81 85 89 93 95 99 102 105 107 100 86 76 66 59 59 59 58 57 57
Wind_Direction
247 248 255 265 280 275 287 295 307 308 304 304 280 204 195 181 143 60 1 354 353 339 350 354 353 350 345 342 334 326 318 312 311 309 304 305 310 312 317 322 304 291 283
238 242 252 259 274 275 283 297 302 300 300 298 247 206 203 205 207 301 307 309 325 338 340 339 339 337 336 334 329 319 311 308 303 299 294 291 290 296 301 306 305 302 283
236 248 230 254 263 270 288 295 294 293 289 275 220 207 216 219 242 269 290 309 323 328 325 328 328 328 328 325 323 317 309 303 297 296 293 289 286 287 290 292 296 297 297
245 230 223 253 258 272 278 282 283 281 280 257 217 215 224 237 255 275 296 311 315 314 316 317 318 318 318 319 320 317 312 305 299 292 292 292 291 290 288 290 296 295 295
236 213 218 242 253 276 280 277 272 274 269 242 220 223 233 249 271 289 297 303 307 309 311 311 312 312 312 312 312 313 311 308 302 295 293 295 299 301 298 294 290 293 293
222 219 207 228 275 265 274 275 280 271 248 230 225 236 252 269 279 285 291 298 306 308 310 308 309 311 309 314 310 307 305 302 300 296 291 288 290 295 299 298 292 288 289
199 216 213 221 244 274 269 262 263 247 234 230 239 254 265 271 275 283 291 298 304 305 306 311 316 315 315 315 312 304 301 301 300 298 294 289 287 288 289 290 292 290 289
204 208 238 239 263 240 240 250 253 246 242 244 252 257 263 271 277 285 292 297 299 300 310 315 312 317 314 311 306 298 294 292 293 293 291 287 283 283 283 283 283 284 285
207 183 226 265 250 243 238 243 242 240 250 263 261 268 272 274 279 285 291 295 297 302 309 312 306 306 300 302 304 302 293 290 291 293 292 291 286 278 277 278 278 279 280
96 201 239 234 237 231 230 240 239 252 260 267 276 275 273 279 287 289 291 290 294 295 302 305 307 305 304 304 307 301 300 297 295 293 290 287 285 280 276 275 274 277 276
211 214 218 232 234 232 237 246 259 270 277 276 274 279 287 289 287 285 285 289 293 293 300 305 307 305 305 306 304 301 298 295 292 289 290 290 286 283 278 275 274 272 273
206 215 230 236 238 247 258 272 280 276 284 292 298 297 293 287 281 281 282 288 293 294 302 300 299 301 301 299 298 294 290 286 283 282 283 286 287 282 280 277 274 271 269
202 210 220 240 255 263 267 275 293 305 307 307 305 298 296 294 282 277 282 284 285 289 293 293 290 296 296 293 291 287 283 279 279 278 277 279 282 283 282 279 277 273 271
211 223 232 242 245 255 274 287 298 305 306 305 301 294 295 289 284 276 277 283 282 286 286 287 285 293 297 295 289 282 280 279 280 282 281 281 282 283 282 279 278 276 274
230 228 240 244 264 282 297 302 304 302 298 295 292 293 296 297 291 290 280 282 284 291 287 286 279 288 297 294 288 282 279 277 279 282 282 285 286 283 282 283 280 277 274
233 241 248 264 285 298 300 302 302 296 289 289 299 308 284 278 292 268 291 290 300 293 281 291 286 287 285 284 281 278 276 276 277 279 279 277 279 279 277 278 279 282 280
255 276 290 302 297 293 298 298 295 299 294 293 321 322 320 307 309 309 290 301 299 289 280 286 287 284 284 283 279 280 282 281 283 283 283 284 282 279 278 276 275 274 275
289 297 297 293 295 294 294 289 280 285 317 322 319 314 310 308 304 304 293 282 282 282 285 285 284 284 283 285 285 286 287 286 284 284 283 284 283 283 280 279 279 276 275
289 289 294 295 297 296 280 285 311 311 316 320 321 316 312 303 298 291 282 280 281 283 285 287 286 287 290 291 290 289 289 290 290 289 287 285 284 282 283 279 279 278 276
291 298 298 291 299 304 302 302 299 309 313 318 316 313 307 304 302 298 295 292 290 289 288 289 291 293 295 295 296 294 293 291 289 288 286 286 285 283 282 281 280 279 275
287 293 294 305 305 300 308 306 305 312 312 309 307 306 301 297 293 294 295 296 297 295 293 292 294 296 296 294 291 289 290 290 288 286 287 287 287 286 285 284 282 281 277
290 293 295 303 308 308 306 307 308 304 299 296 300 307 309 309 309 307 305 303 300 298 297 295 294 293 295 294 293 293 291 292 292 292 290 290 288 286 284 283 283 281 279
290 289 290 295 300 311 316 312 304 301 310 315 315 312 309 306 303 300 297 294 294 295 295 295 296 297 298 297 295 295 296 296 295 296 295 293 292 290 287 284 282 279 278
293 290 300 311 314 313 307 311 318 320 318 313 309 305 301 298 297 298 298 298 298 298 299 299 299 300 301 302 302 302 301 299 298 296 296 295 293 291 289 286 283 278 273
305 306 310 315 311 311 318 323 320 318 315 313 311 308 306 305 303 301 299 299 301 303 304 305 306 306 306 305 304 302 301 300 299 298 297 294 291 286 282 279 276 275 273
307 308 312 314 315 318 320 318 316 315 312 310 309 310 309 306 305 305 305 306 307 309 309 309 309 308 306 305 304 303 303 302 301 301 296 292 288 284 283 280 277 273 268
Height
5858 5857 5856 5856 5856 5855 5853 5852 5852 5851 5849 5848 5848 5849 5849 5849 5850 5849 5848 5847 5847 5847 5846 5844 5843 5841 5840 5839 5838 5836 5835 5834 5832 5829 5829 5828 5826 5825 5823 5822 5820 5819 5818
5852 5852 5853 5853 5853 5852 5851 5850 5849 5847 5846 5846 5846 5847 5847 5847 5847 5847 5847 5847 5846 5845 5844 5843 5842 5840 5839 5837 5836 5835 5834 5831 5829 5828 5826 5825 5824 5822 5821 5821 5820 5817 5816
5847 5848 5848 5849 5849 5848 5847 5847 5846 5845 5844 5843 5844 5844 5845 5845 5846 5846 5845 5844 5844 5841 5841 5839 5838 5838 5836 5835 5833 5831 5829 5828 5827 5825 5823 5821 5820 5819 5817 5817 5817 5815 5813
5842 5844 5842 5844 5844 5844 5843 5843 5842 5841 5841 5841 5842 5842 5843 5844 5844 5844 5843 5842 5840 5839 5838 5836 5835 5834 5832 5831 5830 5828 5827 5824 5823 5822 5819 5817 5814 5814 5812 5813 5813 5812 5810
5837 5837 5837 5840 5841 5839 5839 5839 5838 5838 5838 5838 5839 5841 5841 5842 5843 5842 5841 5840 5838 5838 5835 5834 5833 5831 5829 5827 5826 5824 5823 5822 5820 5818 5816 5814 5812 5810 5808 5808 5808 5807 5806
5829 5829 5832 5836 5836 5833 5834 5836 5837 5836 5835 5836 5837 5838 5840 5840 5839 5839 5838 5836 5836 5835 5833 5833 5830 5827 5826 5824 5823 5821 5819 5818 5817 5815 5813 5810 5808 5806 5805 5803 5802 5801 5800
5825 5824 5829 5832 5831 5831 5832 5832 5832 5832 5833 5833 5835 5837 5838 5837 5837 5835 5835 5833 5831 5830 5829 5827 5824 5823 5821 5820 5818 5817 5816 5814 5812 5810 5808 5806 5804 5801 5800 5798 5797 5796 5795
5822 5822 5823 5827 5827 5828 5829 5830 5830 5830 5831 5832 5833 5834 5834 5834 5833 5831 5830 5829 5827 5825 5823 5822 5820 5818 5817 5815 5814 5812 5810 5808 5806 5804 5802 5800 5798 5796 5794 5793 5791 5791 5790
5819 5820 5821 5823 5825 5825 5826 5827 5827 5828 5829 5829 5830 5830 5831 5829 5827 5827 5826 5823 5823 5822 5820 5818 5816 5812 5811 5811 5809 5806 5804 5802 5800 5797 5795 5794 5792 5790 5788 5787 5786 5784 5784
5815 5818 5820 5819 5821 5822 5823 5825 5826 5826 5826 5826 5827 5827 5825 5824 5823 5822 5820 5818 5818 5816 5815 5813 5810 5808 5807 5804 5802 5800 5799 5796 5792 5790 5788 5787 5786 5785 5782 5781 5780 5779 5778
5815 5817 5817 5818 5819 5821 5823 5824 5825 5825 5824 5823 5822 5822 5821 5820 5818 5816 5814 5813 5812 5810 5809 5807 5805 5802 5801 5799 5797 5795 5792 5789 5786 5784 5781 5781 5781 5779 5777 5775 5773 5773 5773
5813 5813 5817 5818 5820 5822 5822 5823 5824 5822 5821 5822 5822 5819 5817 5814 5811 5810 5809 5808 5806 5805 5803 5802 5800 5798 5795 5792 5790 5788 5785 5783 5781 5779 5777 5774 5773 5773 5772 5770 5768 5767 5766
5813 5816 5818 5821 5822 5821 5821 5822 5822 5821 5821 5819 5818 5814 5813 5810 5807 5804 5803 5802 5800 5799 5797 5796 5794 5791 5789 5787 5784 5782 5780 5778 5776 5774 5772 5769 5767 5766 5765 5765 5763 5761 5760
5816 5817 5818 5819 5819 5819 5820 5820 5819 5818 5817 5815 5812 5809 5808 5805 5802 5799 5798 5797 5794 5792 5790 5789 5787 5784 5782 5779 5777 5775 5774 5772 5770 5768 5765 5764 5761 5759 5758 5757 5756 5755 5754
5817 5816 5818 5817 5817 5818 5818 5818 5816 5814 5812 5810 5806 5805 5803 5802 5797 5794 5792 5790 5790 5787 5784 5781 5778 5776 5773 5771 5769 5767 5766 5764 5763 5761 5757 5758 5755 5753 5750 5748 5748 5747 5746
5815 5816 5816 5816 5816 5814 5815 5813 5811 5809 5806 5804 5801 5800 5797 5797 5795 5790 5785 5783 5782 5779 5776 5773 5770 5767 5765 5762 5760 5758 5756 5754 5753 5751 5749 5746 5747 5745 5742 5740 5738 5737 5737
5815 5814 5814 5814 5814 5813 5811 5810 5808 5805 5802 5799 5794 5793 5790 5790 5787 5783 5778 5774 5771 5769 5766 5763 5760 5757 5754 5751 5749 5747 5745 5742 5740 5738 5736 5733 5731 5731 5730 5729 5728 5726 5725
5812 5811 5812 5812 5810 5809 5808 5807 5803 5795 5793 5790 5789 5788 5785 5780 5777 5773 5769 5765 5762 5757 5755 5752 5749 5746 5743 5740 5738 5735 5732 5729 5727 5724 5721 5720 5717 5715 5712 5714 5712 5712 5711
5811 5810 5810 5808 5807 5805 5804 5800 5794 5792 5786 5783 5779 5777 5774 5771 5766 5762 5758 5755 5751 5748 5745 5741 5738 5735 5731 5728 5725 5722 5719 5716 5712 5709 5706 5703 5701 5699 5695 5693 5694 5692 5694
5806 5806 5805 5803 5803 5802 5799 5795 5790 5784 5779 5776 5773 5769 5765 5760 5756 5752 5748 5745 5741 5738 5734 5730 5726 5721 5718 5716 5712 5707 5702 5699 5695 5692 5688 5685 5681 5680 5677 5675 5673 5671 5674
5804 5803 5802 5801 5798 5796 5793 5788 5784 5779 5775 5772 5768 5763 5759 5754 5750 5745 5740 5737 5733 5728 5723 5718 5712 5707 5703 5699 5696 5692 5687 5680 5676 5673 5668 5662 5658 5655 5652 5648 5646 5645 5645
5799 5798 5796 5794 5792 5788 5785 5780 5776 5774 5770 5764 5758 5751 5746 5742 5737 5733 5729 5724 5720 5714 5708 5705 5700 5694 5687 5681 5678 5672 5666 5662 5652 5647 5641 5635 5629 5626 5621 5618 5618 5614 5613
5795 5793 5791 5789 5786 5782 5778 5774 5770 5766 5759 5752 5747 5742 5738 5734 5729 5724 5719 5714 5708 5703 5696 5690 5684 5678 5671 5662 5656 5649 5643 5634 5626 5618 5609 5603 5595 5590 5585 5581 5579 5578 5575
5790 5788 5785 5781 5778 5775 5772 5767 5761 5754 5748 5744 5739 5734 5728 5724 5719 5713 5707 5701 5694 5688 5681 5674 5668 5660 5652 5640 5632 5620 5613 5605 5595 5592 5582 5570 5561 5553 5544 5539 5532 5530 5529
5783 5781 5779 5775 5772 5769 5763 5757 5752 5746 5741 5735 5729 5724 5718 5712 5705 5699 5694 5687 5680 5672 5664 5655 5646 5638 5627 5617 5606 5597 5585 5575 5566 5554 5550 5539 5526 5516 5511 5505 5501 5498 5497
5778 5776 5773 5770 5765 5760 5754 5749 5744 5738 5733 5728 5722 5715 5708 5700 5693 5685 5677 5670 5663 5654 5645 5635 5625 5615 5604 5593 5583 5569 5558 5545 5532 5520 5510 5505 5498 5493 5486 5482 5479 5478 5477